EW8346 Weather Reports


Display with metric or nautical units.
time (UTC)temp
F
wind
direction
speed
MPH
gust
MPH
rain 1hr
in
rain 24hr
in
rain mn
in
humidity
%
barometer
mb
20260507095608 38 239 0.0 3.0 0.01 0.33 0.01 90 1018.1
20260507094607 38 150 0.0 0.0 0.01 0.33 0.01 90 1018.1
20260507094107 38 139 0.0 2.0 0.01 0.33 0.01 90 1018.1
20260507092608 38 104 0.0 0.0 0.01 0.33 0.01 91 1018.0
20260507092107 38 273 0.0 0.0 0.01 0.33 0.01 91 1018.0
20260507091608 38 255 0.0 0.0 0.00 0.32 0.00 91 1018.0
20260507091109 38 255 0.0 0.0 0.00 0.32 0.00 91 1018.0
20260507090608 38 93 0.0 1.0 0.00 0.32 0.00 91 1017.9
20260507085608 38 213 0.0 3.0 0.00 0.32 0.00 93 1017.8
20260507085107 38 210 0.0 0.0 0.00 0.32 0.00 93 1017.7
20260507084107 38 228 0.0 1.0 0.01 0.32 0.00 93 1017.7
20260507083610 38 244 1.0 8.0 0.02 0.32 0.00 93 1017.7
20260507083108 38 225 0.0 0.0 0.02 0.32 0.00 93 1017.7
20260507082107 38 192 1.0 3.0 0.02 0.32 0.00 93 1017.7
20260507081607 38 179 0.0 0.0 0.02 0.32 0.00 94 1017.6
20260507081107 38 148 0.0 3.0 0.03 0.32 0.00 94 1017.5
20260507080609 38 196 0.0 1.0 0.03 0.32 0.00 94 1017.5
20260507080108 38 186 0.0 0.0 0.03 0.32 0.00 94 1017.4
20260507075108 39 251 0.0 0.0 0.04 0.32 0.32 94 1017.5
20260507074607 39 251 0.0 0.0 0.03 0.31 0.31 94 1017.5
20260507074107 39 242 0.0 3.0 0.04 0.31 0.31 94 1017.4
20260507073608 39 179 0.0 0.0 0.04 0.30 0.30 94 1017.4
20260507073108 39 156 0.0 0.0 0.04 0.30 0.30 94 1017.4
20260507072607 39 133 0.0 1.0 0.05 0.30 0.30 94 1017.3
20260507072107 39 158 0.0 0.0 0.05 0.30 0.30 94 1017.3
20260507071609 39 156 0.0 0.0 0.06 0.30 0.30 94 1017.3
20260507071108 39 159 0.0 0.0 0.06 0.29 0.29 94 1017.2
20260507070109 39 159 0.0 0.0 0.07 0.29 0.29 94 1017.2
20260507065108 39 159 0.0 0.0 0.07 0.28 0.28 93 1017.0
20260507064607 39 159 0.0 0.0 0.07 0.28 0.28 94 1017.0
20260507064107 39 159 0.0 0.0 0.07 0.27 0.27 93 1016.9
20260507063607 39 159 0.0 0.0 0.06 0.26 0.26 93 1016.9
20260507063108 39 159 0.0 0.0 0.06 0.26 0.26 93 1016.8
20260507062607 39 159 0.0 0.0 0.06 0.25 0.25 93 1016.7
20260507062107 39 180 0.0 0.0 0.06 0.25 0.25 93 1016.6
20260507061607 39 185 0.0 0.0 0.05 0.24 0.24 93 1016.6
20260507061107 39 185 0.0 0.0 0.05 0.23 0.23 93 1016.5
20260507060107 40 185 0.0 0.0 0.04 0.22 0.22 93 1016.5
20260507055608 40 93 0.0 0.0 0.05 0.22 0.22 93 1016.4
20260507055108 40 93 0.0 0.0 0.04 0.21 0.21 93 1016.4
20260507054607 40 93 0.0 0.0 0.05 0.21 0.21 93 1016.3
20260507053607 40 93 0.0 0.0 0.04 0.20 0.20 93 1016.2
20260507052608 40 93 0.0 0.0 0.03 0.19 0.19 93 1016.3
20260507051607 40 93 0.0 0.0 0.04 0.19 0.19 93 1016.2
20260507051107 40 93 0.0 0.0 0.04 0.18 0.18 93 1016.2
20260507050607 39 93 0.0 0.0 0.06 0.18 0.18 92 1016.2
20260507050114 39 93 0.0 0.0 0.08 0.18 0.18 92 1016.2
20260507045608 39 93 0.0 0.0 0.09 0.17 0.17 92 1016.2
20260507045108 39 93 0.0 0.0 0.10 0.17 0.17 92 1016.1
20260507044607 39 93 0.0 0.0 0.10 0.16 0.16 92 1016.2
20260507044107 39 93 0.0 0.0 0.11 0.16 0.16 92 1016.1
20260507043107 40 93 0.0 0.0 0.12 0.16 0.16 91 1016.1
20260507042608 40 93 0.0 0.0 0.12 0.16 0.16 90 1016.1
20260507042107 40 138 0.0 0.0 0.12 0.16 0.16 90 1016.2
20260507041606 40 136 0.0 0.0 0.11 0.15 0.15 89 1016.2
20260507041109 41 150 0.0 0.0 0.10 0.14 0.14 89 1016.3
20260507040607 41 198 0.0 0.0 0.08 0.12 0.12 88 1016.4
20260507040108 42 157 0.0 1.0 0.07 0.10 0.10 88 1016.3
20260507035607 42 240 0.0 1.0 0.05 0.08 0.08 87 1016.2
20260507035107 42 246 0.0 2.0 0.04 0.07 0.07 86 1016.2
20260507034607 43 220 0.0 0.0 0.03 0.06 0.06 85 1016.1
20260507034107 43 200 1.0 9.0 0.02 0.05 0.05 84 1015.8
20260507033608 43 255 1.0 9.0 0.02 0.04 0.04 83 1015.7
20260507033108 43 231 0.0 7.0 0.02 0.04 0.04 83 1015.5
20260507032609 44 256 0.0 6.0 0.02 0.04 0.04 81 1015.5
20260507032107 44 261 0.0 0.0 0.02 0.04 0.04 82 1015.3
20260507031607 44 76 0.0 0.0 0.03 0.04 0.04 85 1015.2
20260507031107 44 76 0.0 0.0 0.03 0.04 0.04 87 1015.1
20260507030108 44 188 0.0 0.0 0.02 0.03 0.03 87 1015.1
20260507025108 44 198 0.0 0.0 0.03 0.03 0.03 86 1015.1
20260507024608 44 198 0.0 0.0 0.03 0.03 0.03 85 1015.2
20260507024108 44 198 0.0 0.0 0.03 0.03 0.03 84 1015.1
20260507023107 45 198 0.0 0.0 0.02 0.02 0.02 82 1015.0
20260507022607 45 193 0.0 0.0 0.02 0.02 0.02 82 1015.1
20260507022107 45 211 0.0 0.0 0.02 0.02 0.02 80 1015.0
20260507021607 46 153 0.0 0.0 0.01 0.01 0.01 80 1014.9
20260507021108 46 192 0.0 0.0 0.01 0.01 0.01 77 1014.8
20260507020608 47 175 0.0 1.0 0.01 0.01 0.01 78 1014.7
20260507020109 47 146 0.0 0.0 0.01 0.01 0.01 78 1014.8
20260507015607 47 168 0.0 0.0 0.00 0.00 0.00 73 1014.9
20260507015109 47 210 0.0 0.0 0.00 0.00 0.00 71 1014.7
20260507014607 46 209 0.0 0.0 0.00 0.00 0.00 73 1014.7
20260507013607 45 261 0.0 0.0 0.00 0.00 0.00 74 1014.6
20260507013107 45 259 0.0 0.0 0.00 0.00 0.00 75 1014.7
20260507012608 45 251 1.0 7.0 0.00 0.00 0.00 75 1014.7
20260507012108 45 285 0.0 1.0 0.00 0.00 0.00 78 1014.8
20260507011107 45 228 0.0 1.0 0.00 0.00 0.00 77 1014.9
20260507010608 45 240 0.0 0.0 0.00 0.00 0.00 77 1014.8
20260507010108 45 249 0.0 7.0 0.00 0.00 0.00 77 1014.8
20260507005108 45 248 0.0 2.0 0.00 0.00 0.00 80 1014.6
20260507004107 45 222 0.0 3.0 0.00 0.00 0.00 78 1014.7
20260507003608 45 269 0.0 1.0 0.00 0.00 0.00 80 1014.8
20260507003107 45 264 0.0 0.0 0.00 0.00 0.00 80 1014.7
20260507002608 45 291 0.0 0.0 0.00 0.00 0.00 81 1014.7
20260507002109 45 320 0.0 0.0 0.00 0.00 0.00 80 1014.6
20260507001608 45 263 0.0 0.0 0.00 0.00 0.00 80 1014.6
20260507001109 45 276 0.0 1.0 0.00 0.00 0.00 80 1014.5
20260507000608 45 212 0.0 0.0 0.00 0.00 0.00 79 1014.5
20260507000108 45 223 0.0 0.0 0.00 0.00 0.00 81 1014.5
20260506235606 45 335 0.0 0.0 0.00 0.00 0.00 82 1014.5
20260506235108 45 318 0.0 0.0 0.00 0.00 0.00 82 1014.4
20260506234608 45 246 0.0 0.0 0.00 0.00 0.00 83 1014.4
20260506234108 44 253 0.0 0.0 0.00 0.00 0.00 83 1014.4
20260506233608 44 306 0.0 3.0 0.00 0.00 0.00 83 1014.3
20260506233107 45 232 0.0 1.0 0.00 0.00 0.00 81 1014.3
20260506232108 44 222 0.0 0.0 0.00 0.00 0.00 82 1014.3
20260506231607 44 230 0.0 0.0 0.00 0.00 0.00 81 1014.2
20260506231107 45 250 0.0 0.0 0.00 0.00 0.00 80 1014.4
20260506230608 45 286 0.0 0.0 0.00 0.00 0.00 79 1014.3
20260506230108 46 302 0.0 0.0 0.00 0.00 0.00 77 1014.3
20260506225608 46 267 0.0 5.0 0.00 0.00 0.00 75 1014.3
20260506225108 46 212 0.0 2.0 0.00 0.00 0.00 73 1014.2
20260506224608 46 264 0.0 3.0 0.00 0.00 0.00 73 1014.2
20260506224108 46 264 0.0 10.0 0.00 0.00 0.00 73 1014.1
20260506223608 47 249 1.0 3.0 0.00 0.00 0.00 73 1014.0
20260506223107 47 263 1.0 8.0 0.00 0.00 0.00 70 1014.0
20260506222607 47 252 0.0 9.0 0.00 0.00 0.00 70 1014.0
20260506222107 47 202 0.0 9.0 0.00 0.00 0.00 68 1013.9
20260506221607 47 183 0.0 1.0 0.00 0.00 0.00 67 1013.8
20260506221109 46 253 0.0 3.0 0.00 0.00 0.00 68 1013.7
20260506220607 46 212 0.0 9.0 0.00 0.00 0.00 69 1013.7
20260506220107 47 233 0.0 9.0 0.00 0.00 0.00 69 1013.7
20260506215109 47 220 0.0 3.0 0.00 0.00 0.00 66 1013.7
20260506214608 48 229 0.0 5.0 0.00 0.00 0.00 64 1013.6
20260506214107 49 239 0.0 12.0 0.00 0.00 0.00 64 1013.6
20260506213608 50 221 0.0 1.0 0.00 0.00 0.00 61 1013.5
20260506213108 50 234 0.0 0.0 0.00 0.00 0.00 60 1013.3
20260506212607 50 246 0.0 0.0 0.00 0.00 0.00 60 1013.3
20260506211608 49 198 0.0 1.0 0.00 0.00 0.00 61 1013.3
20260506211108 49 214 0.0 0.0 0.00 0.00 0.00 61 1013.3
20260506210608 49 220 0.0 0.0 0.00 0.00 0.00 62 1013.1
20260506210110 49 203 0.0 0.0 0.00 0.00 0.00 63 1013.1
20260506205608 49 198 0.0 1.0 0.00 0.00 0.00 63 1013.1
20260506205108 49 238 0.0 0.0 0.00 0.00 0.00 64 1013.1
20260506204607 49 231 0.0 0.0 0.00 0.00 0.00 65 1013.1
20260506204108 48 290 0.0 0.0 0.00 0.00 0.00 65 1013.0
20260506203609 48 289 0.0 0.0 0.00 0.00 0.00 65 1013.0
20260506203108 48 270 0.0 1.0 0.00 0.00 0.00 66 1012.9
20260506202609 49 256 0.0 9.0 0.00 0.00 0.00 67 1013.0
20260506202108 48 262 0.0 0.0 0.00 0.00 0.00 68 1012.8
20260506201607 48 257 0.0 0.0 0.00 0.00 0.00 69 1012.9
20260506201107 48 353 0.0 1.0 0.00 0.00 0.00 70 1012.9
20260506200607 48 221 0.0 1.0 0.00 0.00 0.00 70 1012.8
20260506200108 47 47 0.0 0.0 0.00 0.00 0.00 71 1012.7
20260506194607 46 70 0.0 0.0 0.00 0.00 0.00 75 1012.8
20260506194107 45 270 0.0 0.0 0.00 0.00 0.00 74 1012.8
20260506192112 45 215 0.0 0.0 0.00 0.00 0.00 76 1012.9
20260506191608 45 243 0.0 0.0 0.00 0.00 0.00 76 1012.9
20260506191109 45 272 0.0 0.0 0.00 0.00 0.00 75 1012.9
20260506190609 45 267 0.0 0.0 0.00 0.00 0.00 76 1012.8
20260506190108 45 232 0.0 0.0 0.00 0.00 0.00 75 1012.8
20260506185608 45 258 0.0 5.0 0.00 0.00 0.00 75 1012.7
20260506184607 45 184 0.0 0.0 0.00 0.00 0.00 74 1012.7
20260506184107 45 247 0.0 0.0 0.00 0.00 0.00 75 1012.7
20260506183607 45 305 0.0 2.0 0.00 0.00 0.00 76 1012.7
20260506183107 45 276 0.0 0.0 0.00 0.00 0.00 76 1012.6
20260506182608 44 250 0.0 0.0 0.00 0.00 0.00 76 1012.7
20260506182108 44 253 0.0 0.0 0.00 0.00 0.00 76 1012.6
20260506181608 44 259 0.0 0.0 0.00 0.00 0.00 76 1012.6
20260506181108 44 253 0.0 0.0 0.00 0.00 0.00 77 1012.6
20260506180608 44 256 0.0 0.0 0.00 0.00 0.00 76 1012.5
20260506180109 44 245 0.0 0.0 0.00 0.00 0.00 76 1012.5
20260506175609 44 240 0.0 0.0 0.00 0.00 0.00 76 1012.5
20260506175108 44 277 0.0 0.0 0.00 0.00 0.00 75 1012.5
20260506174608 43 271 0.0 0.0 0.00 0.00 0.00 76 1012.4
20260506174108 43 271 0.0 0.0 0.00 0.00 0.00 77 1012.5
20260506173618 43 271 0.0 0.0 0.00 0.00 0.00 77 1012.5
20260506170601 42 355 0.0 0.0 0.00 0.00 0.00 78 1012.2
20260506170103 42 14 0.0 0.0 0.00 0.00 0.00 78 1012.3
20260506165602 42 14 0.0 0.0 0.00 0.00 0.00 78 1012.3
20260506164602 42 319 0.0 0.0 0.00 0.00 0.00 78 1012.1
20260506164101 42 289 0.0 0.0 0.00 0.00 0.00 79 1012.0
20260506163603 41 288 0.0 0.0 0.00 0.00 0.00 79 1012.1
20260506163102 41 257 0.0 0.0 0.00 0.00 0.00 79 1012.1
20260506162603 41 250 0.0 0.0 0.00 0.00 0.00 80 1012.0
20260506162101 41 250 0.0 0.0 0.00 0.00 0.00 80 1012.0
20260506161602 41 250 0.0 0.0 0.00 0.00 0.00 80 1012.0
20260506160602 40 250 0.0 0.0 0.00 0.00 0.00 80 1011.9
20260506160103 40 250 0.0 0.0 0.00 0.00 0.00 81 1011.9
20260506155602 40 250 0.0 0.0 0.00 0.00 0.00 81 1011.9
20260506155101 40 250 0.0 0.0 0.00 0.00 0.00 81 1011.9
20260506154602 40 249 0.0 0.0 0.00 0.00 0.00 82 1011.8
20260506154102 40 249 0.0 0.0 0.00 0.00 0.00 82 1011.7
20260506153602 40 250 0.0 0.0 0.00 0.00 0.00 82 1011.7
20260506153102 40 249 0.0 0.0 0.00 0.00 0.00 82 1011.7
20260506152602 39 250 0.0 0.0 0.00 0.00 0.00 81 1011.6
20260506152103 39 250 0.0 0.0 0.00 0.00 0.00 81 1011.8
20260506151602 39 249 0.0 0.0 0.00 0.00 0.00 81 1011.7
20260506151102 39 250 0.0 0.0 0.00 0.00 0.00 81 1011.8
20260506150602 39 250 0.0 0.0 0.00 0.00 0.00 81 1011.7
20260506145602 39 250 0.0 0.0 0.00 0.00 0.00 81 1011.6
20260506145101 39 250 0.0 0.0 0.00 0.00 0.00 82 1011.6
20260506144601 39 250 0.0 0.0 0.00 0.00 0.00 82 1011.5
20260506144101 39 181 0.0 0.0 0.00 0.00 0.00 83 1011.5
20260506143103 39 147 0.0 0.0 0.00 0.00 0.00 84 1011.5
20260506142603 39 147 0.0 0.0 0.00 0.00 0.00 84 1011.5
20260506142103 39 147 0.0 0.0 0.00 0.00 0.00 84 1011.5
20260506141601 39 147 0.0 0.0 0.00 0.00 0.00 84 1011.5
20260506141102 39 147 0.0 0.0 0.00 0.00 0.00 84 1011.5
20260506135601 39 147 0.0 0.0 0.00 0.00 0.00 83 1011.4
20260506135103 39 147 0.0 0.0 0.00 0.00 0.00 83 1011.4
20260506134602 39 147 0.0 0.0 0.00 0.00 0.00 83 1011.4
20260506134102 39 147 0.0 0.0 0.00 0.00 0.00 83 1011.3
20260506133102 39 147 0.0 0.0 0.00 0.00 0.00 83 1011.3
20260506132601 40 147 0.0 0.0 0.00 0.00 0.00 83 1011.3
20260506132102 40 147 0.0 0.0 0.00 0.00 0.00 82 1011.2
20260506131102 40 147 0.0 0.0 0.00 0.00 0.00 82 1011.3
20260506130603 40 147 0.0 0.0 0.00 0.00 0.00 82 1011.1
20260506125602 40 187 0.0 0.0 0.00 0.00 0.00 83 1011.1
20260506124102 40 131 0.0 0.0 0.00 0.00 0.00 83 1010.9
20260506123606 39 180 0.0 0.0 0.00 0.00 0.00 84 1011.0
20260506123103 39 140 0.0 0.0 0.00 0.00 0.00 84 1011.0
20260506122602 39 175 0.0 0.0 0.00 0.00 0.00 84 1011.0
20260506122103 39 139 0.0 0.0 0.00 0.00 0.00 84 1010.9
20260506121602 39 136 0.0 0.0 0.00 0.00 0.00 84 1010.9
20260506120605 39 166 0.0 0.0 0.00 0.00 0.00 84 1010.7
20260506120104 39 228 0.0 0.0 0.00 0.00 0.00 84 1010.8
20260506115604 39 165 0.0 0.0 0.00 0.00 0.00 84 1010.8
20260506114603 39 217 0.0 0.0 0.00 0.00 0.00 85 1010.8
20260506114102 39 223 0.0 0.0 0.00 0.00 0.00 85 1010.7
20260506113608 39 207 0.0 0.0 0.00 0.00 0.00 85 1010.7
20260506113104 39 146 0.0 0.0 0.00 0.00 0.00 85 1010.7
20260506112606 39 188 0.0 0.0 0.00 0.00 0.00 85 1010.7
20260506112110 39 191 0.0 2.0 0.00 0.00 0.00 85 1010.7
20260506111603 39 190 0.0 3.0 0.00 0.00 0.00 84 1010.8
20260506111102 39 217 0.0 3.0 0.00 0.00 0.00 84 1010.8
20260506110602 39 208 0.0 0.0 0.00 0.00 0.00 84 1010.8
20260506105602 40 169 0.0 0.0 0.00 0.00 0.00 84 1010.7
20260506105102 40 169 0.0 0.0 0.00 0.00 0.00 83 1010.7
20260506104102 40 203 0.0 0.0 0.00 0.00 0.00 83 1010.7
20260506102603 40 205 0.0 0.0 0.00 0.00 0.00 83 1010.6
20260506102102 40 211 0.0 2.0 0.00 0.00 0.00 83 1010.5
20260506101602 40 184 0.0 2.0 0.00 0.00 0.00 82 1010.5
20260506101101 40 205 0.0 0.0 0.00 0.00 0.00 82 1010.5
20260506100606 40 189 0.0 0.0 0.00 0.00 0.00 81 1010.5